Regional Weather Roundup
Issued by NWS

Home | Current Version | Previous Version | Graphics & Text | Print | Product List | Glossary Off
Versions: 1 2 3 4 5 6 7 8 9 10 11 12 13 14 15 16 17 18 19 20 21 22 23 24 25 26 27 28 29 30 31 32 33 34 35 36 37 38 39 40 41 42 43 44 45 46 47 48 49 50

000
ASUS45 KCYS 281210
RWRWY

WYOMING REGIONAL WEATHER ROUNDUP
NATIONAL WEATHER SERVICE CHEYENNE WY
500 AM MST SUN DEC 28 2014

NOTE:  "FAIR" INDICATES FEW OR NO CLOUDS BELOW 12,000 FEET
WITH NO SIGNIFICANT WEATHER AND/OR OBSTRUCTIONS TO VISIBILITY.

WYZ001-281300-
YELLOWSTONE NATIONAL PARK

CITY           SKY/WX    TMP DP  RH WIND       PRES   REMARKS
LK YELLOWSTONE   N/A     12   6  77 CALM      29.84F
6HR MIN TEMP:  11; 6HR MAX TEMP:  12; 6HR PCP:  0.14;

W YELLOWSTONE  NOT AVBL

$$
WYZ002>013-054>058-071-098>099-281300-
NORTHERN WYOMING

CITY           SKY/WX    TMP DP  RH WIND       PRES   REMARKS
JACKSON        CLOUDY    16  16 100 SW8       29.92F WCI   5
CODY           FAIR      27   9  46 W17G25    29.80F WCI  14
GREYBULL       FAIR       2  -1  88 CALM      29.91F
6HR MIN TEMP:  -3; 6HR MAX TEMP:   3;

WORLAND        CLOUDY     4  -1  80 NW3       29.90F
6HR MIN TEMP: -10; 6HR MAX TEMP:   4;

SHERIDAN       MOCLDY    11   5  77 W6        29.84F WCI   1
6HR MIN TEMP:   1; 6HR MAX TEMP:  14;

BUFFALO        MOCLDY    17   5  59 N6        29.81F WCI   9
6HR MIN TEMP:  11; 6HR MAX TEMP:  20;

GILLETTE       MOCLDY    18   7  62 E6        29.84S WCI  10
6HR MIN TEMP:  13; 6HR MAX TEMP:  18;

HULETT           N/A    N/A N/A N/A MISG        N/A
NEWCASTLE      FAIR      10   5  79 CALM      29.91S

$$
WYZ014>020-022>026-101>103-281300-
CENTRAL WYOMING

CITY           SKY/WX    TMP DP  RH WIND       PRES   REMARKS
BIG PINEY      CLOUDY    -1  -5  82 NW3       29.96F
6HR MIN TEMP: -14; 6HR MAX TEMP:  -1; 6HR PCP: TRACE;

PINEDALE       LGT SNOW   3   1  92 W5        29.95F WCI  -6
DUBOIS         NOT AVBL
LANDER         FAIR       6  -2  69 W6        29.84F WCI  -4
6HR MIN TEMP:   0; 6HR MAX TEMP:  15;

RIVERTON       FAIR       7  -2  66 W14       29.85F WCI -10
6HR MIN TEMP:   0; 6HR MAX TEMP:  16;

CASPER         FAIR      20  11  68 SW21G31   29.85F WCI   4
6HR MIN TEMP:  15; 6HR MAX TEMP:  20;

DOUGLAS        CLOUDY    25  10  53 NW5       29.86F WCI  19
6HR MIN TEMP:  13; 6HR MAX TEMP:  25;


$$
WYZ021-027>030-104>119-281300-
SOUTHERN WYOMING

CITY           SKY/WX    TMP DP  RH WIND       PRES   REMARKS
EVANSTON       CLOUDY    17   7  64 SW14      29.98F WCI   3
6HR MIN TEMP:  13; 6HR MAX TEMP:  17;

FORT BRIDGER   CLOUDY    21  10  62 W18G26    29.98F WCI   6
ROCK SPRINGS   FLURRIES  14  10  84 SW12      29.97F WCI   0
6HR MIN TEMP:  13; 6HR MAX TEMP:  15; 6HR PCP: TRACE;

DIXON          CLOUDY    19   8  61 S16G22    30.05F WCI   4
RAWLINS        MOCLDY    15   7  70 SW22G31   29.92F WCI  -3
6HR MIN TEMP:  12; 6HR MAX TEMP:  17;

SARATOGA       CLOUDY    19   9  63 SW14      29.96F WCI   6
LARAMIE        CLOUDY    17   3  54 SW15      29.87R WCI   2
6HR MIN TEMP:  11; 6HR MAX TEMP:  17;

CHEYENNE       CLOUDY    16   3  56 SW6       29.89F WCI   7
6HR MIN TEMP:  12; 6HR MAX TEMP:  20;

TORRINGTON     FAIR       5  -1  76 SE7       29.93F WCI  -7
6HR MIN TEMP:   0; 6HR MAX TEMP:  19;

PINE BLUFFS    PTSUNNY    1  -4  78 MISG      29.95R

$$



USA.gov is the U.S. government's official web portal to all federal, state and local government web resources and services.